Time,TemperatureF,DewpointF,PressureIn,WindDirection,WindDirectionDegrees,WindSpeedMPH,WindSpeedGustMPH,Humidity,HourlyPrecipIn,Conditions,Clouds,dailyrainin,SoftwareType,DateUTC
2013-08-23 00:10:00,66.6,64.2,29.90,WSW,247,3.2,-999.0,92,-99.99,,,0.00,Acu-Link.com,2013-08-23 04:10:00,
2013-08-23 00:26:00,66.4,63.7,29.90,West,270,3.2,-999.0,91,-99.99,,,0.00,Acu-Link.com,2013-08-23 04:26:00,
2013-08-23 00:41:00,65.8,62.8,29.90,West,270,3.7,-999.0,90,-99.99,,,0.00,Acu-Link.com,2013-08-23 04:41:00,
2013-08-23 00:56:00,65.5,62.5,29.91,SW,225,2.7,-999.0,90,-99.99,,,0.00,Acu-Link.com,2013-08-23 04:56:00,
2013-08-23 01:11:00,64.9,62.2,29.91,WSW,247,2.7,-999.0,91,-99.99,,,0.00,Acu-Link.com,2013-08-23 05:11:00,
2013-08-23 01:26:00,64.8,62.4,29.91,West,270,2.7,-999.0,92,-99.99,,,0.00,Acu-Link.com,2013-08-23 05:26:00,
2013-08-23 01:41:00,64.8,62.4,29.91,WSW,247,1.7,-999.0,92,-99.99,,,0.00,Acu-Link.com,2013-08-23 05:41:00,
2013-08-23 01:56:00,64.8,62.7,29.91,SW,225,2.2,-999.0,93,-99.99,,,0.00,Acu-Link.com,2013-08-23 05:56:00,
2013-08-23 02:11:00,64.6,62.5,29.92,SW,225,2.7,-999.0,93,-99.99,,,0.00,Acu-Link.com,2013-08-23 06:11:00,
2013-08-23 02:26:00,64.4,62.6,29.92,SW,225,2.7,-999.0,94,-99.99,,,0.00,Acu-Link.com,2013-08-23 06:26:00,
2013-08-23 02:42:00,63.9,62.4,29.92,SW,225,1.7,-999.0,95,-99.99,,,0.00,Acu-Link.com,2013-08-23 06:42:00,
2013-08-23 02:57:00,63.5,62.3,29.92,SW,225,2.7,-999.0,96,-99.99,,,0.00,Acu-Link.com,2013-08-23 06:57:00,
2013-08-23 03:12:00,63.0,61.8,29.92,SW,225,2.7,-999.0,96,-99.99,,,0.00,Acu-Link.com,2013-08-23 07:12:00,
2013-08-23 03:27:00,62.6,61.7,29.93,West,270,1.1,-999.0,97,-99.99,,,0.00,Acu-Link.com,2013-08-23 07:27:00,
2013-08-23 03:42:00,62.8,62.2,29.92,NNW,337,1.7,-999.0,98,-99.99,,,0.00,Acu-Link.com,2013-08-23 07:42:00,
2013-08-23 03:57:00,62.1,61.5,29.92,South,180,1.1,-999.0,98,-99.99,,,0.00,Acu-Link.com,2013-08-23 07:57:00,
2013-08-23 04:12:00,61.7,61.4,29.92,SSW,202,1.7,-999.0,99,-99.99,,,0.00,Acu-Link.com,2013-08-23 08:12:00,
2013-08-23 04:28:00,61.5,61.2,29.92,SSW,202,1.7,-999.0,99,-99.99,,,0.00,Acu-Link.com,2013-08-23 08:28:00,
2013-08-23 04:44:00,61.2,60.9,29.92,SW,225,1.1,-999.0,99,-99.99,,,0.00,Acu-Link.com,2013-08-23 08:44:00,
2013-08-23 04:59:00,60.8,60.5,29.93,SW,225,1.7,-999.0,99,-99.99,,,0.00,Acu-Link.com,2013-08-23 08:59:00,
2013-08-23 05:14:00,60.6,59.7,29.93,West,270,1.7,-999.0,97,-99.99,,,0.00,Acu-Link.com,2013-08-23 09:14:00,
2013-08-23 05:29:00,60.3,59.2,29.94,SSW,202,2.2,-999.0,96,-99.99,,,0.00,Acu-Link.com,2013-08-23 09:29:00,
2013-08-23 05:44:00,59.9,58.8,29.95,SSW,202,2.7,-999.0,96,-99.99,,,0.00,Acu-Link.com,2013-08-23 09:44:00,
2013-08-23 05:59:00,59.2,58.3,29.95,SSW,202,2.2,-999.0,97,-99.99,,,0.00,Acu-Link.com,2013-08-23 09:59:00,
2013-08-23 06:15:00,59.0,58.4,29.96,SSW,202,3.2,-999.0,98,-99.99,,,0.00,Acu-Link.com,2013-08-23 10:15:00,
2013-08-23 06:30:00,58.6,58.0,29.96,SW,225,2.2,-999.0,98,-99.99,,,0.00,Acu-Link.com,2013-08-23 10:30:00,
2013-08-23 06:45:00,58.6,58.3,29.97,SW,225,2.7,-999.0,99,-99.99,,,0.00,Acu-Link.com,2013-08-23 10:45:00,
2013-08-23 07:00:00,58.8,58.5,29.98,SSW,202,2.7,-999.0,99,-99.99,,,0.00,Acu-Link.com,2013-08-23 11:00:00,
2013-08-23 07:15:00,59.9,59.3,29.98,SSW,202,3.2,-999.0,98,-99.99,,,0.00,Acu-Link.com,2013-08-23 11:15:00,
2013-08-23 07:30:00,62.6,60.2,29.98,SW,225,2.2,-999.0,92,-99.99,,,0.00,Acu-Link.com,2013-08-23 11:30:00,
2013-08-23 07:45:00,64.9,60.3,30.00,West,270,2.7,-999.0,85,-99.99,,,0.00,Acu-Link.com,2013-08-23 11:45:00,
2013-08-23 08:00:00,65.5,60.5,30.00,West,270,1.7,-999.0,84,-99.99,,,0.00,Acu-Link.com,2013-08-23 12:00:00,
2013-08-23 08:15:00,67.6,60.8,30.00,West,270,1.7,-999.0,79,-99.99,,,0.00,Acu-Link.com,2013-08-23 12:15:00,
2013-08-23 08:31:00,69.6,61.3,30.01,West,270,2.7,-999.0,75,-99.99,,,0.00,Acu-Link.com,2013-08-23 12:31:00,
2013-08-23 08:46:00,73.9,61.4,30.01,NNE,22,2.7,-999.0,65,-99.99,,,0.00,Acu-Link.com,2013-08-23 12:46:00,
2013-08-23 09:01:00,75.4,61.5,30.02,ENE,67,4.7,-999.0,62,-99.99,,,0.00,Acu-Link.com,2013-08-23 13:01:00,
2013-08-23 09:16:00,73.4,60.9,30.01,NE,45,6.8,-999.0,65,-99.99,,,0.00,Acu-Link.com,2013-08-23 13:16:00,
2013-08-23 09:31:00,69.1,60.5,30.02,ENE,67,6.3,-999.0,74,-99.99,,,0.00,Acu-Link.com,2013-08-23 13:31:00,
2013-08-23 09:46:00,69.4,61.1,30.03,East,90,6.3,-999.0,75,-99.99,,,0.00,Acu-Link.com,2013-08-23 13:46:00,
2013-08-23 10:01:00,70.0,62.8,30.03,NE,45,4.7,-999.0,78,-99.99,,,0.00,Acu-Link.com,2013-08-23 14:01:00,
2013-08-23 10:16:00,71.1,61.6,30.03,West,270,3.7,-999.0,72,-99.99,,,0.00,Acu-Link.com,2013-08-23 14:16:00,
2013-08-23 10:31:00,73.0,61.4,30.03,East,90,6.3,-999.0,67,-99.99,,,0.00,Acu-Link.com,2013-08-23 14:31:00,
2013-08-23 10:47:00,70.2,61.1,30.03,NNW,337,4.2,-999.0,73,-99.99,,,0.00,Acu-Link.com,2013-08-23 14:47:00,
2013-08-23 11:02:00,70.2,61.1,30.03,NNE,22,3.7,-999.0,73,-99.99,,,0.00,Acu-Link.com,2013-08-23 15:02:00,
2013-08-23 11:17:00,72.3,60.7,30.03,ENE,67,4.7,-999.0,67,-99.99,,,0.00,Acu-Link.com,2013-08-23 15:17:00,
2013-08-23 11:32:00,71.6,60.9,30.03,NNW,337,2.2,-999.0,69,-99.99,,,0.00,Acu-Link.com,2013-08-23 15:32:00,
2013-08-23 11:47:00,73.4,60.5,30.04,West,270,2.2,-999.0,64,-99.99,,,0.00,Acu-Link.com,2013-08-23 15:47:00,
2013-08-23 12:02:00,71.6,60.0,30.04,West,270,2.7,-999.0,67,-99.99,,,0.00,Acu-Link.com,2013-08-23 16:02:00,
2013-08-23 12:17:00,73.8,62.6,30.03,NNE,22,2.7,-999.0,68,-99.99,,,0.00,Acu-Link.com,2013-08-23 16:17:00,
2013-08-23 12:32:00,72.0,60.4,30.03,ENE,67,3.7,-999.0,67,-99.99,,,0.00,Acu-Link.com,2013-08-23 16:32:00,
2013-08-23 12:47:00,73.2,60.3,30.03,NNE,22,3.7,-999.0,64,-99.99,,,0.00,Acu-Link.com,2013-08-23 16:47:00,
2013-08-23 13:03:00,75.0,61.1,30.03,SSW,202,2.7,-999.0,62,-99.99,,,0.00,Acu-Link.com,2013-08-23 17:03:00,
2013-08-23 13:18:00,73.0,59.2,30.04,NE,45,5.8,-999.0,62,-99.99,,,0.00,Acu-Link.com,2013-08-23 17:18:00,
2013-08-23 13:33:00,73.4,61.3,30.04,NNE,22,4.7,-999.0,66,-99.99,,,0.00,Acu-Link.com,2013-08-23 17:33:00,
2013-08-23 13:48:00,74.5,61.1,30.04,NE,45,3.2,-999.0,63,-99.99,,,0.00,Acu-Link.com,2013-08-23 17:48:00,
2013-08-23 14:03:00,73.8,60.0,30.04,NE,45,6.8,-999.0,62,-99.99,,,0.00,Acu-Link.com,2013-08-23 18:03:00,
2013-08-23 14:18:00,74.7,61.3,30.04,SE,135,4.7,-999.0,63,-99.99,,,0.00,Acu-Link.com,2013-08-23 18:18:00,
2013-08-23 14:33:00,72.9,60.0,30.05,NNE,22,2.2,-999.0,64,-99.99,,,0.00,Acu-Link.com,2013-08-23 18:33:00,
2013-08-23 14:48:00,72.5,59.6,30.05,ENE,67,6.8,-999.0,64,-99.99,,,0.00,Acu-Link.com,2013-08-23 18:48:00,
2013-08-23 15:03:00,72.7,59.8,30.04,ESE,112,7.3,-999.0,64,-99.99,,,0.00,Acu-Link.com,2013-08-23 19:03:00,
2013-08-23 15:19:00,72.0,60.4,30.05,NE,45,7.8,-999.0,67,-99.99,,,0.00,Acu-Link.com,2013-08-23 19:19:00,
2013-08-23 15:34:00,71.8,59.4,30.04,NE,45,7.8,-999.0,65,-99.99,,,0.00,Acu-Link.com,2013-08-23 19:34:00,
2013-08-23 15:49:00,72.3,59.0,30.04,NNE,22,6.8,-999.0,63,-99.99,,,0.00,Acu-Link.com,2013-08-23 19:49:00,
2013-08-23 16:04:00,71.2,57.9,30.05,North,0,5.8,-999.0,63,-99.99,,,0.00,Acu-Link.com,2013-08-23 20:04:00,
2013-08-23 16:19:00,71.8,58.1,30.05,NNE,22,6.3,-999.0,62,-99.99,,,0.00,Acu-Link.com,2013-08-23 20:19:00,
2013-08-23 16:34:00,70.9,55.4,30.05,East,90,8.9,-999.0,58,-99.99,,,0.00,Acu-Link.com,2013-08-23 20:34:00,
2013-08-23 16:50:00,70.3,56.2,30.05,NE,45,4.7,-999.0,61,-99.99,,,0.00,Acu-Link.com,2013-08-23 20:50:00,
2013-08-23 17:05:00,71.6,56.0,30.05,NE,45,2.2,-999.0,58,-99.99,,,0.00,Acu-Link.com,2013-08-23 21:05:00,
2013-08-23 17:20:00,70.3,56.2,30.06,West,270,2.2,-999.0,61,-99.99,,,0.00,Acu-Link.com,2013-08-23 21:20:00,
2013-08-23 17:35:00,69.3,55.3,30.06,NNE,22,6.3,-999.0,61,-99.99,,,0.00,Acu-Link.com,2013-08-23 21:35:00,
2013-08-23 17:51:00,69.1,56.4,30.06,NNE,22,2.7,-999.0,64,-99.99,,,0.00,Acu-Link.com,2013-08-23 21:51:00,
2013-08-23 18:06:00,68.4,56.2,30.06,East,90,3.7,-999.0,65,-99.99,,,0.00,Acu-Link.com,2013-08-23 22:06:00,
2013-08-23 18:21:00,67.8,55.6,30.07,NE,45,4.2,-999.0,65,-99.99,,,0.00,Acu-Link.com,2013-08-23 22:21:00,
2013-08-23 18:36:00,67.6,56.2,30.06,NE,45,3.2,-999.0,67,-99.99,,,0.00,Acu-Link.com,2013-08-23 22:36:00,
2013-08-23 18:51:00,67.3,55.1,30.06,NE,45,2.2,-999.0,65,-99.99,,,0.00,Acu-Link.com,2013-08-23 22:51:00,
2013-08-23 19:06:00,66.6,55.3,30.06,NE,45,1.7,-999.0,67,-99.99,,,0.00,Acu-Link.com,2013-08-23 23:06:00,
2013-08-23 19:22:00,65.7,54.8,30.06,NNE,22,2.2,-999.0,68,-99.99,,,0.00,Acu-Link.com,2013-08-23 23:22:00,
2013-08-23 19:37:00,64.9,55.3,30.07,NNE,22,0.0,-999.0,71,-99.99,,,0.00,Acu-Link.com,2013-08-23 23:37:00,
2013-08-23 19:52:00,63.7,56.0,30.07,WNW,292,0.0,-999.0,76,-99.99,,,0.00,Acu-Link.com,2013-08-23 23:52:00,
2013-08-23 20:07:00,62.6,55.6,30.08,WNW,292,0.0,-999.0,78,-99.99,,,0.00,Acu-Link.com,2013-08-24 00:07:00,
2013-08-23 20:22:00,61.3,56.1,30.08,SW,225,1.1,-999.0,83,-99.99,,,0.00,Acu-Link.com,2013-08-24 00:22:00,
2013-08-23 20:37:00,60.4,55.9,30.08,SW,225,1.7,-999.0,85,-99.99,,,0.00,Acu-Link.com,2013-08-24 00:37:00,
2013-08-23 20:52:00,59.7,56.1,30.09,WSW,247,1.1,-999.0,88,-99.99,,,0.00,Acu-Link.com,2013-08-24 00:52:00,
2013-08-23 21:07:00,59.0,55.8,30.10,WSW,247,2.2,-999.0,89,-99.99,,,0.00,Acu-Link.com,2013-08-24 01:07:00,
2013-08-23 21:22:00,58.6,55.7,30.10,SW,225,2.2,-999.0,90,-99.99,,,0.00,Acu-Link.com,2013-08-24 01:22:00,
2013-08-23 21:38:00,58.1,55.8,30.11,SW,225,2.2,-999.0,92,-99.99,,,0.00,Acu-Link.com,2013-08-24 01:38:00,
2013-08-23 21:53:00,57.6,55.6,30.11,SSW,202,2.7,-999.0,93,-99.99,,,0.00,Acu-Link.com,2013-08-24 01:53:00,
2013-08-23 22:08:00,57.2,55.5,30.11,WSW,247,2.2,-999.0,94,-99.99,,,0.00,Acu-Link.com,2013-08-24 02:08:00,
2013-08-23 22:23:00,57.0,55.3,30.11,SW,225,2.2,-999.0,94,-99.99,,,0.00,Acu-Link.com,2013-08-24 02:23:00,
2013-08-23 22:38:00,57.2,55.5,30.12,WSW,247,2.2,-999.0,94,-99.99,,,0.00,Acu-Link.com,2013-08-24 02:38:00,
2013-08-23 22:53:00,57.2,55.8,30.12,SW,225,2.7,-999.0,95,-99.99,,,0.00,Acu-Link.com,2013-08-24 02:53:00,
2013-08-23 23:08:00,57.0,55.6,30.12,WSW,247,2.2,-999.0,95,-99.99,,,0.00,Acu-Link.com,2013-08-24 03:08:00,
2013-08-23 23:23:00,56.5,55.4,30.13,SW,225,2.7,-999.0,96,-99.99,,,0.00,Acu-Link.com,2013-08-24 03:23:00,
2013-08-23 23:38:00,56.3,55.5,30.13,WSW,247,1.7,-999.0,97,-99.99,,,0.00,Acu-Link.com,2013-08-24 03:38:00,
2013-08-23 23:54:00,56.3,55.5,30.13,WSW,247,2.2,-999.0,97,-99.99,,,0.00,Acu-Link.com,2013-08-24 03:54:00,